Vorticity
nan nan nan nan nan nan nan nan nan nan nan nan nan nan nan nan nan nan nan nan nan nan nan nan nan nan nan nan nan nan nan nan nan nan nan nan nan nan nan nan nan nan nan nan nan nan nan nan nan
nan 0 2 4 8 10 7 8 -5 10 9 8 3 -2 1 17 23 13 9 10 4 6 6 7 6 6 5 6 6 6 6 6 5 6 6 7 7 6 5 5 5 7 7 7 7 7 7 7 nan
nan 8 8 5 4 3 10 12 3 12 7 5 -2 3 13 15 9 8 10 7 5 5 7 6 8 7 6 7 6 7 6 7 7 6 7 7 7 6 7 5 6 5 6 6 6 7 6 7 nan
nan 7 4 5 9 9 16 6 10 2 1 8 9 12 16 7 6 11 6 4 5 6 5 6 6 6 7 7 7 6 6 6 7 7 7 6 6 7 6 6 6 5 6 5 5 7 7 5 nan
nan 8 7 7 15 16 6 7 12 3 7 2 10 9 1 7 15 5 1 4 5 4 6 5 5 7 7 5 6 5 6 6 7 7 7 7 7 6 6 6 6 6 6 6 6 7 6 3 nan
nan 6 8 10 9 6 10 7 6 6 0 8 7 4 6 12 8 5 6 5 6 5 5 5 5 4 6 7 6 6 7 6 6 7 6 7 7 6 6 6 6 7 6 7 7 8 7 5 nan
nan 6 6 7 12 13 1 8 5 8 1 6 4 -1 9 11 7 5 5 4 6 5 3 6 6 4 5 6 6 6 7 8 7 6 5 5 6 6 7 6 7 6 6 6 7 7 7 7 nan
nan 7 7 8 4 8 -1 15 9 -2 13 11 -2 6 13 11 5 2 4 5 7 5 4 4 6 4 5 5 5 6 7 7 7 5 5 3 3 5 5 6 6 6 5 6 7 8 6 5 nan
nan 2 4 12 15 8 11 1 5 9 17 3 10 21 15 7 2 2 4 7 4 6 6 5 7 3 3 8 4 5 5 4 3 5 5 -1 2 6 3 7 9 6 5 5 6 7 4 2 nan
nan -3 9 1 4 4 20 13 7 6 4 7 17 20 15 5 2 3 6 7 5 5 4 5 6 9 3 4 4 4 4 4 5 6 5 2 6 8 6 5 6 5 3 2 1 4 5 7 nan
nan -3 -0 8 14 21 6 -1 3 15 0 5 10 10 7 2 5 5 5 4 6 2 6 12 5 3 8 3 4 5 6 7 7 8 6 10 5 5 4 5 5 8 5 3 3 1 5 8 nan
nan 1 -6 13 21 14 6 7 3 9 15 17 14 7 6 4 7 5 4 6 6 4 8 6 4 7 7 7 6 7 7 8 9 8 8 7 7 5 8 6 10 5 6 5 7 5 9 5 nan
nan 4 9 13 5 4 4 8 14 12 7 12 13 8 4 5 6 5 4 8 5 6 8 5 4 6 2 7 9 6 12 8 8 4 9 6 8 10 9 7 6 4 12 9 7 11 7 6 nan
nan 9 6 -2 10 6 3 1 20 15 10 15 7 7 5 5 4 5 5 7 5 5 7 6 5 4 8 5 6 6 10 10 8 10 8 6 5 11 8 6 8 11 4 7 9 10 11 10 nan
nan 9 11 5 5 0 -4 -0 16 19 24 10 8 5 5 7 7 5 6 6 5 6 7 6 5 4 4 5 9 11 7 4 7 8 6 10 7 7 10 9 5 8 10 8 6 9 9 8 nan
nan 12 7 10 8 8 4 7 6 2 2 11 6 7 6 10 6 5 7 6 7 6 5 7 6 6 3 4 7 6 9 9 8 6 8 5 9 8 6 8 9 9 8 7 4 8 9 9 nan
nan 13 8 12 11 7 1 8 1 -1 19 19 6 10 6 8 7 7 7 6 7 7 6 7 7 9 5 6 7 8 5 8 7 9 10 7 7 4 10 9 7 8 5 9 9 9 7 10 nan
nan 5 7 10 10 14 -1 10 21 -1 10 12 8 9 9 6 5 10 6 6 6 7 7 6 6 9 6 6 5 7 6 7 7 11 7 8 8 6 4 11 10 8 6 7 8 8 10 8 nan
nan 10 14 8 7 9 18 6 -1 7 6 11 21 7 8 8 5 10 6 7 5 6 6 5 6 7 5 7 7 6 10 9 8 4 7 11 6 10 5 7 8 6 9 7 10 8 6 7 nan
nan 5 6 11 16 13 8 5 4 6 3 16 8 8 8 9 5 7 6 7 4 6 6 5 8 7 5 4 6 7 8 8 11 11 11 6 7 8 7 6 8 9 10 9 7 8 9 7 nan
nan 7 5 4 19 12 -4 2 5 -4 7 11 14 17 8 9 9 5 7 5 6 7 6 6 8 6 4 4 7 7 5 11 12 7 8 8 9 5 8 10 9 6 7 11 8 7 8 7 nan
nan 8 5 6 9 10 7 0 14 17 6 -0 19 20 9 6 9 6 8 6 7 7 7 7 7 6 5 6 7 7 7 7 8 8 9 10 8 7 9 7 7 8 8 8 5 10 9 7 nan
nan 7 12 8 4 8 10 8 13 17 5 6 10 13 14 8 9 7 7 7 8 7 7 7 6 5 7 5 4 8 6 5 9 10 11 8 8 10 8 7 8 8 6 8 9 8 6 8 nan
nan 9 8 11 16 12 10 6 11 12 11 11 12 8 17 10 8 8 8 7 6 7 8 8 8 5 6 8 5 6 6 5 6 8 10 8 8 7 9 10 7 6 8 10 10 5 6 6 nan
nan 7 12 11 9 11 12 6 11 8 13 3 9 24 10 10 9 9 9 6 8 8 6 7 8 7 7 7 5 7 8 4 5 9 9 7 8 10 10 7 7 7 9 7 8 7 8 9 nan
nan 6 5 4 3 11 8 10 6 13 10 5 8 1 13 21 7 10 8 7 9 7 7 8 8 7 7 6 7 6 6 7 8 7 8 9 9 12 12 8 8 7 8 8 8 7 10 9 nan
nan 10 1 5 7 6 12 16 8 11 16 9 5 10 10 3 18 10 8 8 9 10 9 7 7 8 7 6 7 7 6 8 7 7 7 6 5 12 15 7 7 10 7 7 8 7 10 9 nan
nan 10 13 10 9 6 10 9 18 17 10 12 17 11 9 1 -6 19 16 7 7 10 10 10 9 9 8 7 5 8 9 5 5 8 6 8 7 10 11 9 7 7 8 11 7 8 9 8 nan
nan 5 4 13 15 10 9 9 6 20 18 13 5 7 5 18 12 8 7 14 12 9 9 9 9 9 8 7 8 7 9 7 5 6 9 7 6 10 8 9 11 10 7 8 7 7 10 12 nan
nan nan nan nan nan nan nan nan nan nan nan nan nan nan nan nan nan nan nan nan nan nan nan nan nan nan nan nan nan nan nan nan nan nan nan nan nan nan nan nan nan nan nan nan nan nan nan nan nan
CAPE
0 0 0 82 165 452 477 317 153 247 185 50 175 240 382 421 566 637 140 199 520 738 1092 1260 1925 1972 1984 2109 1994 1981 2278 2280 2163 2041 2111 2369 2100 1836 1583 1820 1591 1763 1333 1466 1726 1521 1701 2010 2152
0 0 56 606 409 642 282 239 472 253 175 72 123 214 296 416 198 116 469 568 568 824 1010 1111 1845 2108 2209 2008 2441 2344 1984 2081 2114 2064 2205 2040 1929 1797 1810 1674 1635 1842 1761 1445 1726 1553 1611 1955 2015
47 29 421 736 798 75 370 113 354 180 87 140 316 458 345 298 244 417 495 343 505 475 664 1140 2549 2424 2285 2407 2122 2273 2279 2248 2229 2067 2029 1781 1806 1819 1658 1598 1756 1850 1696 1681 1599 1816 1874 1565 1987
241 249 457 836 652 80 556 182 436 219 243 470 275 401 203 355 325 293 310 299 70 80 518 1734 2510 1993 2436 2120 2225 2262 2208 2276 2069 2130 1973 1931 2137 1856 1873 1783 1649 1848 1740 1682 1690 1569 1558 1643 1458
259 609 494 811 608 222 559 359 115 341 280 468 488 258 136 255 341 296 140 203 57 289 673 1151 2416 2125 2088 2185 2107 2227 2058 2156 2069 1996 2084 2053 1976 1753 1756 1782 1655 1646 1686 1589 1697 1710 1582 1623 1517
275 581 713 676 222 108 388 326 137 255 410 415 324 154 156 255 223 208 182 175 193 228 400 1165 1819 1971 2134 2069 2280 2079 2025 2091 1832 2327 2206 2056 2243 1895 1752 1609 1644 1784 1510 1445 1535 1563 1540 1474 1496
175 677 376 204 218 303 597 564 347 408 426 483 265 355 198 177 184 177 123 58 17 65 250 983 1184 1825 1924 2152 2101 1973 2161 2090 2570 2282 2567 2725 2544 2096 2070 2069 1489 1297 1389 1170 1284 1597 1641 1682 1577
491 594 580 395 253 57 54 617 556 458 438 590 632 332 190 275 255 213 241 26 58 98 303 1148 1020 920 1604 1696 1952 2028 2018 2067 2318 2551 2609 2545 2077 1376 1555 2162 1960 1169 1419 1179 1306 1517 1729 1731 1549
245 674 680 268 101 290 176 680 575 558 572 575 666 414 189 149 217 136 80 17 224 52 170 338 573 846 2013 1892 1952 2013 1965 1743 1882 1875 1863 1735 1452 1619 1253 2118 1885 1231 1338 1311 1402 1532 1504 1581 1487
46 694 567 345 285 6 267 598 535 518 459 587 754 405 170 103 212 232 36 6 136 57 8 191 899 808 1573 928 1975 2109 1684 1481 1652 1811 1783 2397 1130 1875 1067 1642 2013 1258 1597 1602 1441 177 994 1510 1496
14 83 569 189 270 132 122 561 410 442 385 501 541 294 149 110 186 55 47 18 27 61 44 187 887 1022 757 1130 1901 1786 1506 1710 1789 2416 1461 2079 1624 1886 1006 1381 1373 1565 1674 1168 1374 1270 934 1329 1294
5 26 64 28 524 524 315 276 332 105 114 551 527 224 196 150 115 25 43 53 31 65 48 301 414 1360 772 1149 1348 982 1552 1236 1306 1675 1922 1962 661 576 1612 930 1982 828 975 1364 415 1284 705 856 877
6 19 19 292 594 270 0 212 9 0 0 452 474 197 192 165 68 44 70 56 27 19 53 322 410 2356 782 997 592 970 520 822 1534 1597 1036 1372 1973 1213 1963 491 890 824 1543 1160 564 1495 1098 402 1141
5 0 16 270 476 674 129 150 111 175 271 593 361 190 150 203 75 120 95 55 31 19 145 407 398 1646 2032 1952 2221 895 1851 770 1494 1783 1532 703 2015 2502 2456 1017 1089 843 1223 1174 1390 1709 1604 1230 451
0 0 0 6 520 464 264 178 241 455 345 417 471 277 228 243 162 176 182 79 35 48 352 446 395 925 2062 1391 1550 1888 1577 1315 412 2095 2462 1739 1251 2365 1799 746 961 981 1970 1664 1554 2383 1136 768 1043
0 0 0 0 31 430 363 420 123 457 568 492 576 308 302 275 191 227 186 59 46 29 675 358 14 556 1272 1797 2305 2038 1488 1540 1529 1391 2150 2333 1098 2923 965 1275 912 1487 1001 1814 246 1789 1409 587 675
0 0 0 0 10 124 438 325 249 287 502 574 547 396 339 363 315 312 146 68 57 180 654 429 683 875 1114 1897 1711 1740 1507 2126 1495 2254 1838 2748 2655 2328 1855 696 1538 872 2255 2242 1506 70 1819 1065 1073
0 0 0 0 0 48 169 227 269 87 221 529 485 500 349 263 314 360 195 40 87 249 481 518 1021 1608 1675 2058 2669 1349 1865 1487 1428 2590 2546 2960 2374 2656 1269 1476 2246 2352 248 766 1745 136 897 556 476
0 0 0 0 0 43 57 100 30 79 35 37 448 719 444 354 479 444 275 32 166 220 387 736 1397 2015 1532 1676 1561 1341 1193 1973 622 801 1627 3043 2605 2507 1524 1862 2261 2248 500 623 1806 2292 1618 603 1285
0 0 0 0 0 97 331 8 0 0 0 2 431 471 682 389 304 394 331 62 95 274 397 1155 1285 1942 1402 1807 1814 1696 1330 1558 968 1290 2159 2641 2666 3037 2283 1705 2273 742 2376 2260 1603 449 719 144 373
0 0 0 0 0 81 90 50 18 0 23 197 518 321 473 609 489 429 324 163 148 283 555 1031 1310 1798 1454 1825 1592 2492 2795 2238 1720 2489 2474 2791 2832 3028 2162 2643 1961 2484 942 1608 2059 2369 127 660 1160
0 0 0 0 0 0 15 140 0 33 194 14 10 397 371 612 603 454 352 291 123 359 746 989 1494 2120 1387 2148 1296 1976 1501 1492 1582 1799 2237 2492 3182 3068 2913 2879 3201 2380 1844 1445 2907 2522 1166 238 1136
0 0 0 0 0 0 0 7 206 168 9 4 0 296 281 487 601 519 331 358 176 498 675 976 1357 2024 1351 1434 2023 1852 1704 1424 2190 1598 2761 2624 3641 3526 2908 3649 3279 2612 2553 2669 2805 2402 2782 2426 1750
0 0 0 0 0 0 0 0 0 247 13 0 0 119 387 268 564 742 494 447 316 426 528 1119 1310 1665 1684 1391 1522 2150 1428 2410 1941 1956 1796 2478 2586 2836 3563 3188 2927 2690 2826 2445 2658 3033 2904 3246 2942
0 0 0 0 0 0 0 0 0 32 124 0 0 267 687 578 558 830 857 709 538 378 517 836 1350 1475 1562 1521 1089 2157 1602 1835 2870 3104 1870 1539 2041 1749 2827 3776 3013 2932 2950 2907 2822 3381 3287 3219 3079
0 0 0 0 0 0 0 0 0 0 309 297 128 69 25 809 719 764 910 938 820 633 533 719 1405 1571 1586 1925 1102 1318 2241 1472 1729 2759 1698 2752 1530 1976 2562 3026 3071 3338 3195 3110 3167 2710 3115 3016 3219
0 0 0 0 0 0 0 0 0 0 0 484 78 29 8 122 718 883 954 932 1161 959 709 897 1373 1652 1903 1667 1859 1048 1996 1981 1107 2265 2808 2042 2510 2199 2888 3030 3392 3577 3050 2957 3161 2469 2783 2448 2952
0 0 1 0 0 0 0 0 0 0 0 0 186 157 175 58 1 198 1013 988 1168 1116 1116 978 1462 1772 2042 1745 2010 1635 997 1692 1777 1052 2916 2133 2688 2442 2932 3258 3049 3042 3677 3528 3247 2774 2768 2955 2509
0 0 0 1 13 0 0 0 0 30 0 0 327 159 2 0 4 93 2 1091 1047 1132 1321 1203 1290 1984 2321 2285 1936 1917 1619 1258 1141 1616 1283 2098 2105 4008 3311 3729 3208 3175 2970 3717 3618 3099 2837 2944 2787
0 0 0 16 1 6 2 0 0 0 10 0 0 259 160 91 17 0 0 280 1078 1103 1145 1403 1361 1702 2218 2398 2194 2046 2300 1675 1405 884 2044 2625 3407 2866 4310 3346 3799 3060 3021 3160 3277 3143 2147 2991 2843